Location: Borojevi?i
(45.0486°N, 16.2297°E)
Time: 05:02:50
(UTC+00:00)

Terra - Pass Details

Date: 08 August 2020
Orbit: 701 x 703 km, 98.2° (Epoch: 19 September)

Event Time Altitude Azimuth Distance (km) Brightness Sun altitude
Exits shadow 20:22:25 38° 115° (ESE) 1,074 2.3 -19.3°
Maximum altitude 20:23:43 48° 71° (ENE) 917 2.2 -19.5°
Drops below altitude 10° 20:28:18 10° 357° (N) 2,181 5.1 -20.0°
Sets 20:30:37 0° 352° (N) 3,104 6.1 -20.3°
